Home   Weather   Prešov   Past weeks

Flag for Slovakia Past Weather in Prešov, Slovakia — Yesterday and Last 2 Weeks

Now
57 °F

Light rain. Clear.


Feels Like: 57 °F
Forecast: 56 / 72 °F
Wind: 2 mph from North

Location: Kosice - Barca

Current Time: Jul 27, 2017 at 4:28:08 am

Latest Report: Jul 27, 2017 at 4:00 am


Visibility: N/A

Pressure: 29.74 "Hg

Humidity: 94%

Dew Point: 55 °F

Location of PrešovLocation

Past Weather in Prešov — Graph

°F

Prešov Temperature Yesterday

Maximum temperature yesterday: 73 °F (at 3:30 pm)
Minimum temperature yesterday: 57 °F (at 6:00 am)
Average temperature yesterday: 64 °F

High & Low Weather Summary for the Past Weeks

 TemperatureHumidityPressure
High90 °F (Jul 20, 3:30 pm)100% (Jul 23, 11:00 pm)30.21 "Hg (Jul 23, 11:00 pm)
Low48 °F (Jul 14, 3:00 am)31% (Jul 20, 3:00 pm)29.56 "Hg (Jul 25, 7:30 am)
Average69 °F65%29.94 "Hg
* Reported Jul 12 3:00 am — Jul 27 3:00 am, Prešov. Weather by CustomWeather, © 2017

Note: Actual official high and low records may vary slightly from our data, if they occured in-between our weather recording intervals... More about our weather records

Advertising

Prešov Weather History for the Previous 24 Hours

Scroll right to see more
 ConditionsComfort  
Time TempWeatherWind HumidityBarometerVisibility
3:00 am
Thu, Jul 27
57 °FLight rain. Clear.3 mph94%29.74 "HgN/A
2:30 am57 °FLight rain. Clear.3 mph94%29.74 "HgN/A
2:00 am57 °FLight rain. Clear.2 mph94%29.74 "HgN/A
1:30 am57 °FPassing clouds.3 mph94%29.74 "HgN/A
1:00 am57 °FClear.5 mph94%29.74 "Hg10 mi
12:30 am57 °FClear.2 mph88%29.74 "Hg10 mi
12:00 am57 °FClear.2 mph82%29.74 "Hg10 mi
11:30 pm
Wed, Jul 26
57 °FClear.3 mph88%29.71 "Hg10 mi
11:00 pm57 °FClear.5 mph88%29.71 "Hg10 mi
10:30 pm59 °FClear.5 mph82%29.71 "Hg10 mi
10:00 pm59 °FClear.3 mph82%29.71 "Hg10 mi
9:30 pm57 °FPassing clouds.3 mph88%29.71 "HgN/A
9:00 pm61 °FClear.8 mph83%29.71 "Hg10 mi
8:30 pm63 °FClear.8 mph73%29.71 "Hg10 mi
8:00 pm64 °FSunny.8 mph64%29.68 "Hg10 mi
7:30 pm66 °FSunny.13 mph60%29.68 "Hg10 mi
7:00 pm66 °FSunny.17 mph64%29.68 "Hg10 mi
6:30 pm70 °FSunny.9 mph53%29.68 "Hg10 mi
6:00 pm70 °FSunny.9 mph50%29.68 "Hg10 mi
5:30 pm72 °FSunny.14 mph47%29.68 "Hg10 mi
5:00 pm73 °FSunny.12 mph44%29.65 "Hg10 mi
4:30 pm73 °FSunny.13 mph44%29.65 "Hg10 mi
4:00 pm72 °FSunny.12 mph50%29.68 "Hg10 mi
3:30 pm73 °FSunny.12 mph47%29.68 "Hg10 mi
3:00 pm72 °FPassing clouds.12 mph50%29.68 "HgN/A
2:30 pm70 °FPartly sunny.13 mph53%29.68 "HgN/A
2:00 pm72 °FScattered clouds.13 mph50%29.65 "HgN/A
1:30 pm72 °FPassing clouds.10 mph53%29.65 "HgN/A
1:00 pm70 °FScattered clouds.10 mph57%29.65 "HgN/A
12:30 pm70 °FScattered clouds.10 mph60%29.65 "HgN/A
12:00 pm70 °FPassing clouds.14 mph57%29.65 "HgN/A
11:30 am68 °FPassing clouds.12 mph60%29.65 "HgN/A
11:00 am68 °FPassing clouds.10 mph64%29.68 "HgN/A
10:30 am66 °FScattered clouds.10 mph64%29.68 "HgN/A
10:00 am64 °FPassing clouds.9 mph78%29.65 "HgN/A
9:30 am63 °FScattered clouds.3 mph77%29.65 "HgN/A
9:00 am61 °FPartly sunny.6 mph88%29.68 "HgN/A
8:00 am61 °FScattered clouds.7 mph88%29.65 "HgN/A
7:30 am61 °FPassing clouds.5 mph88%29.65 "HgN/A
7:00 am59 °FPassing clouds.6 mph94%29.65 "HgN/A
6:30 am59 °FPassing clouds.5 mph94%29.65 "HgN/A
6:00 am57 °FPassing clouds.3 mph94%29.65 "HgN/A
5:30 am59 °FScattered clouds.5 mph88%29.65 "HgN/A
5:00 am61 °FPartly sunny.5 mph94%29.65 "HgN/A
4:30 am61 °FPassing clouds.3 mph94%29.65 "HgN/A
4:00 am61 °FPassing clouds.2 mph94%29.65 "HgN/A
Weather by CustomWeather, © 2017

See weather overviewHow to use our weather pages